Miscellaneous Local Product
Issued by NWS North Platte, NE

Home | Current Version | Previous Version | Graphics & Text | Print | Product List | Glossary On
Versions: 1 2 3 4 5 6 7 8 9 10 11 12 13 14 15 16 17 18 19 20 21 22 23 24 25 26 27 28 29 30 31 32 33 34 35 36 37 38 39 40 41 42 43 44 45 46 47 48 49 50
000
AXUS43 KLBF 210710
MISLBF


WESTERN AND NORTH CENTRAL NEBRASKA HOURLY WEATHER ROUNDUP
NATIONAL WEATHER SERVICE NORTH PLATTE NE
200 AM CDT THU MAY 21 2015

***STATIONS NOT REPORTING VARIABLES SUCH AS SKY/WEATHER OR
PRESSURE ARE PROVIDED BY THE NEBRASKA DEPARTMENT OF
ROADS...RAWS...AND APRS NETWORKS...AND ARE NOT UNDER
NATIONAL WEATHER SERVICE QUALITY CONTROL***

...OBSERVATIONS IN AND NEAR THE EASTERN PANHANDLE OF NEBRASKA...

CITY           SKY/WX    TMP DP  RH WIND       PRES   REMARKS
PINE RIDGE     CLEAR     31  28  89 CALM      30.30S
CHADRON        CLEAR     32  30  92 SW3       30.30F
ALLIANCE       PTCLDY    33  30  88 SW5       30.30S WCI  29
SIDNEY         CLOUDY    41  37  86 SE7       30.31F
WHITECLAY        N/A     28  27  96 E6          N/A  WCI  21
BIG SPRINGS      N/A     45  40  83 E3          N/A
$$

...OBSERVATIONS IN NORTH CENTRAL NEBRASKA...

CITY           SKY/WX    TMP DP  RH WIND       PRES   REMARKS
VALENTINE      CLEAR     36  33  89 W7        30.29S WCI  30
THEDFORD       CLEAR     37  35  94 W5        30.31F WCI  33
AINSWORTH      CLEAR     39  36  89 W8        30.28F WCI  33
O`NEILL        CLEAR     41  37  88 W9        30.26F
ORD            CLEAR     37  34  89 CALM      30.28F
BROKEN BOW     CLEAR     36  34  92 CALM      30.29F
BROWNLEE         N/A     39  35  87 W5          N/A
BREWSTER         N/A     36  34  94 CALM        N/A
ROSE             N/A     38  38  99 CALM        N/A
NEWPORT          N/A     39  37  94 W9          N/A  WCI  32
COMSTOCK         N/A     39  39  99 W6          N/A  WCI  35
$$

...OBSERVATIONS IN SOUTHWEST NEBRASKA AND FAR NORTHEAST COLORADO...

CITY           SKY/WX    TMP DP  RH WIND       PRES   REMARKS
WRAY           CLOUDY    44  41  87 CALM      30.31F
IMPERIAL       CLOUDY    44  39  82 CALM      30.32S
OGALLALA       CLOUDY    44  38  79 CALM      30.32S
NORTH PLATTE   PTCLDY    37  35  92 CALM      30.31F
MCCOOK         MOCLDY    44  40  85 CALM      30.32F
LEXINGTON      CLEAR     38  36  94 W3        30.31F
PAXTON           N/A     44  41  89 CALM        N/A
GOTHENBURG       N/A     40  37  88 CALM        N/A
CALLAWAY         N/A     39  37  93 W5          N/A
$$

...NORTH PLATTE AREA...

CITY           SKY/WX    TMP DP  RH WIND       PRES   REMARKS
AIRPORT        PTCLDY    37  35  92 CALM      30.31F
$$

...SOME WEATHER OBSERVATIONS FROM AROUND THE REGION...

CITY           SKY/WX    TMP DP  RH WIND       PRES   REMARKS
DENVER         DRIZZLE   40  39  97 SE6       30.28S
LARAMIE        CLOUDY    34  32  92 SE18G24   30.21F WCI  23
CHEYENNE       CLOUDY    36  35  96 S10       30.26F FOG     WCI  28
SCOTTSBLUFF    CLOUDY    41  36  82 SE5       30.31S
RAPID CITY     CLEAR     36  32  85 CALM      30.26F
PIERRE         CLEAR     45  35  68 W12       30.21F
WINNER         FAIR      46  36  68 W10       30.25F
SIOUX FALLS    CLEAR     44  31  60 W3        30.18S
OMAHA          CLEAR     42  41  96 CALM      30.26S
GRAND ISLAND   CLEAR     39  36  89 W7        30.30S WCI  34
KANSAS CITY    CLOUDY    47  46  97 NW3       30.24S
WICHITA        MOCLDY    51  44  77 N10       30.27S
HAYS           PTCLDY    43  34  70 N6        30.31F
LIBERAL        CLOUDY    48  37  66 N8        30.32F
GOODLAND       CLOUDY    45  38  76 SW3       30.32F
$$



USA.gov is the U.S. government's official web portal to all federal, state and local government web resources and services.